This is the latest recevied weather packets stored in our database for station/object N6HGA-1. If no packets are shown the sender has not sent any weather packets the latest 10 day(s).
| Time | Temp. | Humidity | Pressure | Rain* | Wind** | Luminosity | Snow |
|---|---|---|---|---|---|---|---|
| 1777822385 | 17.78° C | 82% | - | 0 mm | - | - | - |
| 1777822085 | 17.78° C | 82% | - | 0 mm | - | - | - |
| 1777821781 | 17.22° C | 82% | - | 0 mm | - | - | - |
| 1777821478 | 16.67° C | 82% | - | 0 mm | - | - | - |
| 1777821178 | 16.67° C | 81% | - | 0 mm | - | - | - |
| 1777820873 | 16.11° C | 76% | - | 0 mm | - | - | - |
| 1777820573 | 15.56° C | 78% | - | 0 mm | - | - | - |
| 1777820273 | 15.56° C | 78% | - | 0 mm | - | - | - |
| 1777819972 | 15.56° C | 77% | - | 0 mm | - | - | - |
| 1777819672 | 15.56° C | 79% | - | 0 mm | - | - | - |
| 1777819370 | 15.56° C | 77% | - | 0 mm | - | - | - |
| 1777819070 | 15.56° C | 74% | - | 0 mm | - | - | - |
| 1777818761 | 15° C | 78% | - | 0 mm | - | - | - |
| 1777818457 | 15° C | 79% | - | 0 mm | - | - | - |
| 1777818156 | 14.44° C | 81% | - | 0 mm | - | - | - |
| 1777817856 | 14.44° C | 82% | - | 0 mm | - | - | - |
| 1777817546 | 14.44° C | 83% | - | 0 mm | - | - | - |
| 1777817245 | 13.89° C | 82% | - | 0 mm | - | - | - |
| 1777816943 | 13.89° C | 85% | - | 0 mm | - | - | - |
| 1777816642 | 13.33° C | 87% | - | 0 mm | - | - | - |
| 1777816342 | 12.78° C | 89% | - | 0 mm | - | - | - |
| 1777816041 | 12.78° C | 90% | - | 0 mm | - | - | - |
| 1777815741 | 12.78° C | 90% | - | 0 mm | - | - | - |
| 1777815441 | 12.22° C | 90% | - | 0 mm | - | - | - |
| 1777815140 | 12.22° C | 89% | - | 0 mm | - | - | - |
* Rain since midnight (hover to see other rain measurements)
** Current wind speed in m/s (hover to see current wind gust speed)